N4JTC Weather Reports


Display with metric or nautical units.
time (UTC)temp
F
wind
direction
speed
MPH
gust
MPH
rain 1hr
in
rain 24hr
in
rain mn
in
humidity
%
barometer
mb
20260506222503 82 173 7.0 9.0 0.00 0.00 0.00 74 1015.2
20260506222003 82 196 5.0 7.0 0.00 0.00 0.00 73 1015.1
20260506221504 82 199 6.0 7.0 0.00 0.00 0.00 73 1015.2
20260506221003 82 200 6.0 7.0 0.00 0.00 0.00 73 1015.0
20260506220503 82 208 8.0 10.0 0.00 0.00 0.00 72 1015.2
20260506220002 82 168 4.0 5.0 0.00 0.00 0.00 72 1015.4
20260506215503 82 240 4.0 6.0 0.00 0.00 0.00 73 1015.6
20260506215003 82 227 3.0 5.0 0.00 0.00 0.00 72 1015.4
20260506214503 83 190 6.0 9.0 0.00 0.00 0.00 70 1015.5
20260506214003 83 166 5.0 7.0 0.00 0.00 0.00 72 1015.8
20260506213503 83 227 5.0 7.0 0.00 0.00 0.00 71 1015.8
20260506213003 83 241 4.0 5.0 0.00 0.00 0.00 70 1015.8
20260506212503 83 233 4.0 6.0 0.00 0.00 0.00 70 1015.7
20260506212003 82 223 3.0 4.0 0.00 0.00 0.00 70 1015.8
20260506211502 83 182 6.0 7.0 0.00 0.00 0.00 68 1015.6
20260506211003 83 200 3.0 5.0 0.00 0.00 0.00 68 1015.7
20260506210503 84 206 4.0 5.0 0.00 0.00 0.00 67 1015.7
20260506210003 82 148 2.0 3.0 0.00 0.00 0.00 71 1016.2
20260506205503 82 242 5.0 7.0 0.00 0.00 0.00 72 1016.0
20260506204503 83 233 4.0 5.0 0.00 0.00 0.00 71 1015.9
20260506204003 82 280 4.0 6.0 0.00 0.00 0.00 71 1016.0
20260506203503 83 189 7.0 10.0 0.00 0.00 0.00 72 1016.1
20260506203003 83 165 4.0 5.0 0.00 0.00 0.00 71 1015.9
20260506202503 83 187 5.0 7.0 0.00 0.00 0.00 71 1016.4
20260506202003 83 213 4.0 5.0 0.00 0.00 0.00 72 1016.5
20260506201502 83 244 5.0 7.0 0.00 0.00 0.00 71 1016.5
20260506200503 83 188 4.0 6.0 0.00 0.00 0.00 72 1016.6
20260506200003 83 234 8.0 9.0 0.00 0.00 0.00 73 1017.1
20260506195503 83 252 5.0 5.0 0.00 0.00 0.00 72 1017.1
20260506194502 82 226 4.0 7.0 0.00 0.00 0.00 74 1017.1
20260506194002 82 222 5.0 6.0 0.00 0.00 0.00 74 1017.1
20260506193503 84 218 4.0 7.0 0.00 0.00 0.00 73 1017.4
20260506193003 84 209 4.0 6.0 0.00 0.00 0.00 73 1017.2
20260506192503 83 230 6.0 9.0 0.00 0.00 0.00 73 1017.2
20260506192002 83 207 6.0 7.0 0.00 0.00 0.00 73 1017.3
20260506191502 83 203 7.0 10.0 0.00 0.00 0.00 73 1017.5
20260506191003 83 257 5.0 6.0 0.00 0.00 0.00 71 1017.4
20260506190503 83 202 7.0 10.0 0.00 0.00 0.00 72 1017.4
20260506185503 83 229 3.0 5.0 0.00 0.00 0.00 73 1017.6
20260506184503 84 242 5.0 6.0 0.00 0.00 0.00 69 1017.6
20260506184002 84 217 4.0 6.0 0.00 0.00 0.00 70 1017.7
20260506183503 83 161 3.0 4.0 0.00 0.00 0.00 69 1017.6
20260506183003 83 243 5.0 6.0 0.00 0.00 0.00 71 1017.5
20260506182503 83 194 2.0 3.0 0.00 0.00 0.00 72 1017.5
20260506182003 84 224 7.0 9.0 0.00 0.00 0.00 72 1017.5
20260506181503 83 174 6.0 7.0 0.00 0.00 0.00 70 1017.4
20260506181002 83 220 4.0 5.0 0.00 0.00 0.00 73 1017.8
20260506180503 83 197 4.0 6.0 0.00 0.00 0.00 73 1017.9
20260506180004 83 217 5.0 6.0 0.00 0.00 0.00 72 1018.0
20260506175502 83 264 5.0 7.0 0.00 0.00 0.00 71 1017.9
20260506175003 83 218 4.0 5.0 0.00 0.00 0.00 72 1017.9
20260506174503 83 232 3.0 4.0 0.00 0.00 0.00 72 1017.9
20260506173503 83 223 6.0 7.0 0.00 0.00 0.00 71 1017.8
20260506173003 83 218 4.0 4.0 0.00 0.00 0.00 73 1018.1
20260506172503 82 197 5.0 7.0 0.00 0.00 0.00 74 1018.0
20260506171503 81 237 4.0 5.0 0.00 0.00 0.00 75 1018.3
20260506170503 81 207 3.0 4.0 0.00 0.00 0.00 75 1018.3
20260506170003 81 220 3.0 4.0 0.00 0.00 0.00 77 1018.2
20260506165503 80 230 3.0 4.0 0.00 0.00 0.00 78 1018.2
20260506165003 81 206 5.0 6.0 0.00 0.00 0.00 77 1018.1
20260506164503 81 206 4.0 5.0 0.00 0.00 0.00 76 1018.0
20260506164003 81 167 4.0 5.0 0.00 0.00 0.00 76 1017.9
20260506163503 81 202 4.0 4.0 0.00 0.00 0.00 76 1017.8
20260506162502 80 212 5.0 6.0 0.00 0.00 0.00 78 1017.9
20260506162003 80 214 4.0 6.0 0.00 0.00 0.00 78 1017.8
20260506161503 79 226 5.0 6.0 0.00 0.00 0.00 78 1017.8
20260506161003 80 185 2.0 3.0 0.00 0.00 0.00 78 1017.7
20260506160503 79 168 5.0 10.0 0.00 0.00 0.00 78 1017.6
20260506155502 80 194 5.0 6.0 0.00 0.00 0.00 77 1017.7
20260506155003 80 133 3.0 5.0 0.00 0.00 0.00 79 1017.7
20260506154503 80 178 3.0 4.0 0.00 0.00 0.00 79 1017.6
20260506154003 80 195 6.0 6.0 0.00 0.00 0.00 78 1017.6
20260506153503 79 212 5.0 9.0 0.00 0.00 0.00 80 1017.7
20260506153003 79 240 6.0 7.0 0.00 0.00 0.00 80 1017.6
20260506152502 79 220 7.0 9.0 0.00 0.00 0.00 78 1017.4
20260506152003 79 230 5.0 5.0 0.00 0.00 0.00 79 1017.4
20260506151504 78 268 3.0 4.0 0.00 0.00 0.00 80 1017.4
20260506151002 78 201 7.0 9.0 0.00 0.00 0.00 81 1017.5
20260506150503 78 210 5.0 6.0 0.00 0.00 0.00 80 1017.2
20260506145503 79 215 8.0 10.0 0.00 0.00 0.00 80 1017.2
20260506145003 79 224 5.0 6.0 0.00 0.00 0.00 80 1017.1
20260506144502 79 173 4.0 5.0 0.00 0.00 0.00 80 1017.1
20260506143503 78 170 4.0 5.0 0.00 0.00 0.00 80 1017.1
20260506143003 78 175 4.0 5.0 0.00 0.00 0.00 81 1017.2
20260506142503 78 202 5.0 6.0 0.00 0.00 0.00 81 1017.0
20260506141503 78 202 4.0 5.0 0.00 0.00 0.00 81 1016.8
20260506140503 78 148 6.0 7.0 0.00 0.00 0.00 82 1016.7
20260506140002 78 180 5.0 6.0 0.00 0.00 0.00 82 1016.9
20260506135502 78 210 3.0 4.0 0.00 0.00 0.00 82 1016.8
20260506135003 77 173 5.0 6.0 0.00 0.00 0.00 83 1016.7
20260506134503 77 178 3.0 5.0 0.00 0.00 0.00 84 1016.6
20260506133502 76 197 2.0 4.0 0.00 0.00 0.00 86 1016.8
20260506132503 77 174 4.0 6.0 0.00 0.00 0.00 86 1016.4
20260506132002 76 192 5.0 6.0 0.00 0.00 0.00 86 1016.6
20260506131503 75 217 5.0 5.0 0.00 0.00 0.00 87 1016.2
20260506131003 75 234 4.0 5.0 0.00 0.00 0.00 88 1016.1
20260506130503 75 212 3.0 4.0 0.00 0.00 0.00 88 1016.2
20260506125502 74 179 4.0 6.0 0.00 0.00 0.00 90 1016.1
20260506125003 74 189 4.0 5.0 0.00 0.00 0.00 91 1016.1
20260506124503 74 59 1.0 2.0 0.00 0.00 0.00 93 1016.1
20260506124003 74 51 1.0 2.0 0.00 0.00 0.00 93 1016.0
20260506123503 73 50 1.0 2.0 0.00 0.00 0.00 95 1016.0
20260506123003 72 44 1.0 2.0 0.00 0.00 0.00 95 1016.0
20260506122502 72 32 0.0 0.0 0.00 0.00 0.00 95 1015.6
20260506122003 71 61 1.0 2.0 0.00 0.00 0.00 95 1015.7
20260506121503 71 138 3.0 4.0 0.00 0.00 0.00 95 1015.5
20260506121003 71 90 3.0 4.0 0.00 0.00 0.00 95 1015.5
20260506120503 71 75 1.0 2.0 0.00 0.00 0.00 95 1015.2
20260506120004 71 44 0.0 0.0 0.00 0.00 0.00 95 1015.1
20260506115502 71 58 0.0 0.0 0.00 0.00 0.00 95 1015.2
20260506115003 71 122 3.0 4.0 0.00 0.00 0.00 94 1015.1
20260506114503 71 116 2.0 3.0 0.00 0.00 0.00 95 1015.2
20260506114005 72 58 2.0 3.0 0.00 0.00 0.00 95 1015.0
20260506113503 72 142 2.0 3.0 0.00 0.00 0.00 95 1015.0
20260506113003 72 184 3.0 3.0 0.00 0.00 0.00 95 1014.7
20260506112503 72 60 1.0 2.0 0.00 0.00 0.00 95 1014.7
20260506111504 72 166 2.0 3.0 0.00 0.00 0.00 95 1014.7
20260506111003 72 72 1.0 2.0 0.00 0.00 0.00 95 1014.7
20260506110504 71 110 2.0 3.0 0.00 0.00 0.00 95 1014.3
20260506110004 71 114 1.0 2.0 0.00 0.00 0.00 95 1014.7
20260506105503 71 117 4.0 5.0 0.00 0.00 0.00 95 1014.7
20260506105003 72 62 1.0 2.0 0.00 0.00 0.00 95 1014.4
20260506104507 72 56 0.0 0.0 0.00 0.00 0.00 95 1014.6
20260506104003 72 54 0.0 0.0 0.00 0.00 0.00 95 1014.5
20260506103503 72 129 2.0 3.0 0.00 0.00 0.00 95 1014.4
20260506103003 72 64 1.0 2.0 0.00 0.00 0.00 95 1014.4
20260506102503 72 82 1.0 2.0 0.00 0.00 0.00 95 1014.5
20260506102003 72 72 1.0 2.0 0.00 0.00 0.00 95 1014.5
20260506101503 72 86 1.0 2.0 0.00 0.00 0.00 95 1014.5
20260506101003 72 69 1.0 2.0 0.00 0.00 0.00 95 1014.5
20260506100502 72 84 1.0 2.0 0.00 0.00 0.00 95 1014.2
20260506095503 72 58 0.0 0.0 0.00 0.00 0.00 94 1014.6
20260506095003 72 94 1.0 2.0 0.00 0.00 0.00 94 1014.3
20260506094503 72 173 2.0 4.0 0.00 0.00 0.00 94 1014.4
20260506093503 72 80 1.0 2.0 0.00 0.00 0.00 94 1014.2
20260506093003 72 165 3.0 4.0 0.00 0.00 0.00 94 1014.4
20260506092503 72 70 1.0 2.0 0.00 0.00 0.00 94 1014.5
20260506091502 72 72 0.0 0.0 0.00 0.00 0.00 94 1014.4
20260506091003 72 59 0.0 0.0 0.00 0.00 0.00 94 1014.3
20260506090503 72 70 1.0 2.0 0.00 0.00 0.00 94 1014.5
20260506090003 72 166 2.0 3.0 0.00 0.00 0.00 94 1014.7
20260506085502 72 156 2.0 3.0 0.00 0.00 0.00 94 1014.5
20260506084503 72 88 1.0 2.0 0.00 0.00 0.00 94 1014.5
20260506084008 72 145 2.0 4.0 0.00 0.00 0.00 93 1014.5
20260506083503 72 164 2.0 3.0 0.00 0.00 0.00 93 1014.5
20260506083003 72 58 0.0 0.0 0.00 0.00 0.00 93 1014.4
20260506082503 72 174 4.0 4.0 0.00 0.00 0.00 93 1014.8
20260506081503 72 115 2.0 4.0 0.00 0.00 0.00 93 1015.0
20260506081003 72 169 2.0 3.0 0.00 0.00 0.00 93 1014.8
20260506080503 72 161 2.0 3.0 0.00 0.00 0.00 93 1015.1
20260506073503 72 226 3.0 4.0 0.00 0.00 0.00 93 1014.8
20260506073003 72 176 3.0 5.0 0.00 0.00 0.00 93 1014.8
20260506072503 72 173 2.0 4.0 0.00 0.00 0.00 93 1014.8
20260506071502 72 127 2.0 2.0 0.00 0.00 0.00 93 1015.0
20260506071003 72 49 1.0 2.0 0.00 0.00 0.00 93 1015.0
20260506070503 72 180 3.0 4.0 0.00 0.00 0.00 93 1014.9
20260506062502 72 172 3.0 4.0 0.00 0.00 0.00 93 1014.9
20260506062003 72 168 3.0 4.0 0.00 0.00 0.00 93 1015.2
20260506061503 72 131 2.0 3.0 0.00 0.00 0.00 93 1015.2
20260506061003 72 169 4.0 5.0 0.00 0.00 0.00 94 1015.2
20260506060503 72 228 4.0 5.0 0.00 0.00 0.00 93 1015.2
20260506051003 72 151 3.0 4.0 0.00 0.00 0.00 93 1015.7
20260506050503 72 99 1.0 2.0 0.00 0.00 0.00 93 1015.6
20260506045003 72 136 2.0 3.0 0.00 0.00 0.00 93 1015.7
20260506044503 72 117 1.0 2.0 0.00 0.00 0.00 93 1015.8
20260506044003 72 82 1.0 2.0 0.00 0.00 0.00 93 1015.8
20260506043503 72 129 2.0 3.0 0.00 0.00 0.00 93 1015.9
20260506042502 72 113 2.0 3.0 0.00 0.00 0.00 93 1016.1
20260506042003 72 101 1.0 2.0 0.00 0.00 0.00 93 1016.0
20260506041503 72 115 1.0 2.0 0.00 0.00 0.00 93 1016.0
20260506041003 72 101 2.0 3.0 0.00 0.00 0.00 93 1016.0
20260506040503 72 112 2.0 3.0 0.00 0.00 0.00 92 1016.3
20260506035503 72 98 0.0 0.0 0.00 0.00 0.00 92 1016.2
20260506035003 72 52 1.0 3.0 0.00 0.00 0.00 92 1016.4
20260506034503 72 156 2.0 3.0 0.00 0.00 0.00 92 1016.2
20260506034003 72 143 2.0 3.0 0.00 0.00 0.00 92 1016.2
20260506033506 72 61 0.0 0.0 0.00 0.00 0.00 92 1016.2
20260506032503 73 93 1.0 2.0 0.00 0.00 0.00 92 1016.2
20260506032003 73 123 1.0 3.0 0.00 0.00 0.00 92 1016.2
20260506031502 73 94 1.0 2.0 0.00 0.00 0.00 92 1016.2
20260506031003 73 173 3.0 4.0 0.00 0.00 0.00 92 1016.2
20260506030503 73 178 3.0 4.0 0.00 0.00 0.00 92 1016.4
20260506030003 73 94 2.0 3.0 0.00 0.00 0.00 92 1016.2
20260506025503 73 210 1.0 3.0 0.00 0.00 0.00 92 1016.2
20260506025004 73 127 2.0 3.0 0.00 0.00 0.00 92 1016.2
20260506024502 73 138 1.0 2.0 0.00 0.00 0.00 92 1016.1
20260506024003 73 163 3.0 5.0 0.00 0.00 0.00 92 1016.2
20260506023503 73 122 3.0 4.0 0.00 0.00 0.00 91 1016.1
20260506022502 73 189 4.0 5.0 0.00 0.00 0.00 91 1015.8
20260506021503 73 168 2.0 5.0 0.00 0.00 0.00 91 1016.0
20260506021004 73 149 3.0 4.0 0.00 0.00 0.00 90 1016.0
20260506020503 73 117 2.0 3.0 0.00 0.00 0.00 90 1016.3
20260506020003 73 204 2.0 3.0 0.00 0.00 0.00 90 1016.0
20260506015503 73 155 2.0 5.0 0.00 0.00 0.00 90 1016.1
20260506015003 73 128 3.0 5.0 0.00 0.00 0.00 90 1016.0
20260506014503 73 155 4.0 5.0 0.00 0.00 0.00 90 1015.6
20260506014003 73 166 2.0 3.0 0.00 0.00 0.00 90 1015.8
20260506013502 73 197 3.0 4.0 0.00 0.00 0.00 90 1015.8
20260506013003 73 177 2.0 5.0 0.00 0.00 0.00 90 1015.9
20260506012503 73 190 2.0 3.0 0.00 0.00 0.00 89 1015.8
20260506012002 73 115 2.0 3.0 0.00 0.00 0.00 89 1015.7
20260506011503 73 161 1.0 2.0 0.00 0.00 0.00 90 1015.6
20260506011003 73 188 4.0 5.0 0.00 0.00 0.00 89 1015.5
20260506010503 73 161 3.0 4.0 0.00 0.00 0.00 89 1015.7
20260506010003 73 190 3.0 4.0 0.00 0.00 0.00 89 1015.5
20260506005502 73 190 3.0 4.0 0.00 0.00 0.00 89 1015.4
20260506005003 73 160 3.0 5.0 0.00 0.00 0.00 88 1015.5
20260506004503 73 145 3.0 4.0 0.00 0.00 0.00 88 1015.2
20260506003503 73 115 4.0 6.0 0.00 0.00 0.00 88 1015.4
20260506003002 73 179 2.0 4.0 0.00 0.00 0.00 88 1015.2
20260506002503 74 170 4.0 6.0 0.00 0.00 0.00 88 1015.2
20260506001503 74 163 3.0 4.0 0.00 0.00 0.00 87 1015.2
20260506000503 74 159 4.0 6.0 0.00 0.00 0.00 86 1015.0
20260505235503 75 178 5.0 7.0 0.00 0.00 0.00 85 1015.4
20260505234503 75 193 6.0 10.0 0.00 0.00 0.00 85 1015.1
20260505234003 75 184 5.0 6.0 0.00 0.00 0.00 85 1015.3
20260505233503 75 180 5.0 7.0 0.00 0.00 0.00 83 1015.5
20260505233003 76 205 8.0 11.0 0.00 0.00 0.00 81 1015.4
20260505232503 76 227 5.0 7.0 0.00 0.00 0.00 80 1015.5
20260505232002 77 188 5.0 7.0 0.00 0.00 0.00 78 1015.2
20260505231503 77 210 7.0 10.0 0.00 0.00 0.00 75 1015.1
20260505230502 78 176 5.0 7.0 0.00 0.00 0.00 73 1015.1
20260505225504 78 193 4.0 6.0 0.00 0.00 0.00 72 1015.4
20260505225002 78 220 6.0 7.0 0.00 0.00 0.00 71 1015.4
20260505224503 78 216 7.0 12.0 0.00 0.00 0.00 67 1015.4
20260505224003 78 203 6.0 9.0 0.00 0.00 0.00 68 1015.4
20260505223503 78 187 7.0 10.0 0.00 0.00 0.00 65 1015.4